ORBITAL FACTORY 2 (45113 NORAD) Tracking and Keplerian Element Data

This shows tracking and keplerian element data for the satellite.

Feedback or suggestion? Click here.




ElementValue
Catalog45113
NameORBITAL FACTORY 2
Epoch Orbit323
Epoch Day52.80529724
Epoch Year2020
RAAN206.8502
Inclination51.6422
Eccentricity0.0013079
Argument of Perigee0.4494
Mean Anonmoly359.6497
Mean Motion15.32888944
Decay Rate1.604E-05
L11 45113U 19071C 20052.80529724 .00001604 00000-0 61332-4 0 9998
L22 45113 51.6422 206.8502 0013079 0.4494 359.6497 15.32888944 3233

Live tracking and technical data element details for ORBITAL FACTORY 2 (NORAD 45113). ORBITAL FACTORY 2 can be tracked NOW for your location showing map with azimuth and elevation plus other details from your city location.

Track the satellite on the map from your city or location and see movement details for azimuth, elevation, latitude, longitude, range, height, and movement on the map or in text.







IsCatalogInMostPopularTable: catalog: 45113, numindb: 10
Update: records affected: 1



GetName: 45113 ORBITAL FACTORY 2

Hit Count: updated at: Mon, 24 Feb 2020 17:09:10 GMT